C/1847 C1 (Hind) |
Classification: Comet SPK-ID: 1000789 |
[ hide orbit diagram ]
For accurate long-term ephemerides, please instead use our Horizons system.This orbit viewer was implemented using two-body methods, and hence should not be used for determining accurate long-term trajectories (over several years or decades) or planetary encounter circumstances.
Orbital Elements at Epoch 2395760.5 (1847-Apr-09.0) TDB
Reference: SAO_2008 (heliocentric ecliptic J2000)
Element | Value | Uncertainty (1-sigma) | Units |
e | 0.999910 | n/a | |
a | 473.2555556 | n/a | au |
q | 0.042593 | n/a | au |
i | 48.6636 | n/a | deg |
node | 23.8240 | n/a | deg |
peri | 254.3565 | n/a | deg |
M | 0.0008822 | n/a | deg |
tp | 2395751.2844 (1847-Mar-30.78440000) | n/a | TDB |
period | n/a n/a | n/a n/a | d yr |
n | 0.0000957 | n/a | deg/d |
Q | 946.4685181 | n/a | au |
|
| | Orbit Determination Parameters
Additional Information
T_jup = 0.180 |
epoch may be 2395761.0 (hour ambiguous: 12h/0h) |
time units are UT, but set to ET |
2008 SAO Comet Catalog |
|
|
no physical parameters available |
|